Sturgis, MI

8:13 AM EDT on July 23, 2017 (GMT -0400)
Kirsch Municipal

Weather History for KIRS - February, 2014

Change the Weather History Date:

Wednesday, February 19, 2014

  Actual Average (KHAI) Record (KHAI)
Temperature  
Mean Temperature 36 °F -  
Max Temperature 41 °F 37 °F 64 °F (2017)
Min Temperature 30 °F 20 °F -15 °F (1979)
Degree Days  
Heating Degree Days 30    
Moisture  
Dew Point 29 °F    
Average Humidity 78    
Maximum Humidity 93    
Minimum Humidity 57    
Precipitation  
Precipitation 0.00 in - - ()
Sea Level Pressure  
Sea Level Pressure 29.83 in    
Wind  
Wind Speed 8 mph (WSW)    
Max Wind Speed 12 mph    
Max Gust Speed 20 mph    
Visibility 9 miles    
Events Snow    
Averages and records for this station are not official NWS values.
T = Trace of Precipitation, MM = Missing Value Source: NWS Daily Summary

Daily Weather History Graph

Daily Weather History Graph

Search for Another Location

Airport or City:

Trip Planner

Search our weather history database for the weather conditions in past years. The results will help you decide how hot, cold, wet, or windy it might be!

Date:

Astronomy

Feb. 19, 2014 Rise Set
Actual Time 7:31 AM EST 6:20 PM EST
Civil Twilight 7:03 AM EST 6:48 PM EST
Nautical Twilight 6:31 AM EST 7:20 PM EST
Astronomical Twilight 5:58 AM EST 7:53 PM EST
Moon 11:17 PM EST (2/19) 9:32 AM EST (2/19)
Length of Visible Light 11h 44m
Length of Day
10h 48m
Waning Gibbous, 80% of the Moon is Illuminated
Feb 19
Waning Gibbous
Feb 22
Last Quarter
Mar 1
New
Mar 8
First Quarter
Mar 16
Full

Hourly Weather History & Observations

Time (EST) Temp. Windchill Dew Point Humidity Pressure Visibility Wind Dir Wind Speed Gust Speed Precip Events Conditions
12:15 AM 39.2 °F 32.5 °F 28.4 °F 65% 29.66 in 10.0 mi SW 10.4 mph - N/A   Clear
12:34 AM 39.2 °F 32.5 °F 28.4 °F 65% 29.65 in 10.0 mi SW 10.4 mph - N/A   Clear
12:55 AM 39.2 °F 33.0 °F 28.4 °F 65% 29.64 in 10.0 mi SW 9.2 mph - N/A   Clear
1:12 AM 37.4 °F 30.8 °F 28.4 °F 70% 29.64 in 10.0 mi SW 9.2 mph - N/A   Clear
1:35 AM 37.4 °F 30.8 °F 30.2 °F 75% 29.63 in 10.0 mi SW 9.2 mph - N/A   Clear
1:55 AM 37.4 °F 30.8 °F 28.4 °F 70% 29.63 in 10.0 mi SW 9.2 mph - N/A   Clear
2:15 AM 35.6 °F 29.9 °F 28.4 °F 75% 29.62 in 10.0 mi SW 6.9 mph - N/A   Clear
2:35 AM 35.6 °F 29.9 °F 28.4 °F 75% 29.62 in 10.0 mi SW 6.9 mph - N/A   Clear
2:54 AM 35.6 °F 30.7 °F 28.4 °F 75% 29.62 in 10.0 mi SW 5.8 mph - N/A   Clear
3:15 AM 35.6 °F 31.7 °F 28.4 °F 75% 29.61 in 10.0 mi SW 4.6 mph - N/A   Clear
3:35 AM 35.6 °F 30.7 °F 28.4 °F 75% 29.61 in 10.0 mi WSW 5.8 mph - N/A   Clear
3:54 AM 33.8 °F 29.6 °F 28.4 °F 81% 29.61 in 10.0 mi WSW 4.6 mph - N/A   Clear
4:15 AM 33.8 °F 29.6 °F 28.4 °F 81% 29.61 in 10.0 mi WSW 4.6 mph - N/A   Clear
4:35 AM 33.8 °F 29.6 °F 30.2 °F 87% 29.60 in 10.0 mi WSW 4.6 mph - N/A   Clear
4:54 AM 33.8 °F 30.8 °F 30.2 °F 87% 29.60 in 10.0 mi West 3.5 mph - N/A   Clear
5:15 AM 33.8 °F 29.6 °F 28.4 °F 81% 29.61 in 10.0 mi WSW 4.6 mph - N/A   Clear
5:35 AM 33.8 °F 29.6 °F 28.4 °F 81% 29.61 in 10.0 mi West 4.6 mph - N/A   Clear
5:54 AM 32.0 °F 26.4 °F 28.4 °F 87% 29.62 in 10.0 mi West 5.8 mph - N/A   Clear
6:15 AM 33.8 °F 27.7 °F 28.4 °F 81% 29.63 in 10.0 mi West 6.9 mph - N/A   Clear
6:34 AM 33.8 °F 26.4 °F 28.4 °F 81% 29.65 in 10.0 mi West 9.2 mph - N/A   Clear
6:55 AM 33.8 °F 26.4 °F 28.4 °F 81% 29.66 in 10.0 mi WNW 9.2 mph - N/A   Clear
7:15 AM 33.8 °F 25.8 °F 28.4 °F 81% 29.68 in 10.0 mi WNW 10.4 mph - N/A   Scattered Clouds
7:34 AM 33.8 °F 25.8 °F 28.4 °F 81% 29.69 in 10.0 mi WNW 10.4 mph - N/A   Scattered Clouds
7:55 AM 33.8 °F 26.4 °F 28.4 °F 81% 29.70 in 10.0 mi NW 9.2 mph - N/A   Scattered Clouds
8:15 AM 33.8 °F 27.7 °F 28.4 °F 81% 29.72 in 10.0 mi WNW 6.9 mph - N/A   Overcast
8:34 AM 33.8 °F 27.7 °F 28.4 °F 81% 29.73 in 10.0 mi West 6.9 mph - N/A   Scattered Clouds
8:55 AM 33.8 °F 26.4 °F 28.4 °F 81% 29.76 in 10.0 mi West 9.2 mph - N/A   Scattered Clouds
9:15 AM 33.8 °F 25.8 °F 28.4 °F 81% 29.78 in 5.0 mi WNW 10.4 mph 19.6 mph N/A   Haze
9:34 AM 33.8 °F 27.7 °F 30.2 °F 87% 29.79 in 3.0 mi WNW 6.9 mph - N/A Snow Light Snow
9:55 AM 33.8 °F 25.8 °F 30.2 °F 87% 29.80 in 5.0 mi WNW 10.4 mph - N/A   Scattered Clouds
10:14 AM 33.8 °F 25.8 °F 30.2 °F 87% 29.82 in 5.0 mi NW 10.4 mph - N/A   Mostly Cloudy
10:35 AM 33.8 °F 27.0 °F 30.2 °F 87% 29.83 in 5.0 mi WNW 8.1 mph - N/A   Mostly Cloudy
10:55 AM 35.6 °F 29.2 °F 30.2 °F 81% 29.84 in 5.0 mi West 8.1 mph - N/A   Mostly Cloudy
11:14 AM 35.6 °F 28.6 °F 30.2 °F 81% - 5.0 mi West 9.2 mph - N/A   Mostly Cloudy
11:35 AM 35.6 °F 29.2 °F 30.2 °F 81% 29.85 in 7.0 mi West 8.1 mph 17.3 mph N/A   Overcast
11:55 AM 37.4 °F 30.8 °F 32.0 °F 81% 29.86 in 7.0 mi West 9.2 mph - N/A   Overcast
12:14 PM 37.4 °F 30.8 °F 32.0 °F 81% 29.87 in 10.0 mi West 9.2 mph - N/A   Scattered Clouds
12:35 PM 37.4 °F 30.3 °F 30.2 °F 75% 29.87 in 10.0 mi West 10.4 mph - N/A   Clear
12:55 PM 39.2 °F 33.0 °F 30.2 °F 70% 29.88 in 10.0 mi West 9.2 mph - N/A   Clear
1:14 PM 39.2 °F 33.0 °F 30.2 °F 70% 29.88 in 10.0 mi WSW 9.2 mph - N/A   Clear
1:35 PM 39.2 °F 32.0 °F 30.2 °F 70% 29.89 in 10.0 mi WSW 11.5 mph - N/A   Clear
1:54 PM 39.2 °F 33.0 °F 30.2 °F 70% 29.90 in 10.0 mi SW 9.2 mph - N/A   Clear
2:15 PM 39.2 °F 32.0 °F 30.2 °F 70% 29.91 in 10.0 mi SW 11.5 mph - N/A   Clear
2:35 PM 41.0 °F 35.2 °F 28.4 °F 61% 29.91 in 10.0 mi WSW 9.2 mph - N/A   Clear
2:54 PM 41.0 °F 34.3 °F 28.4 °F 61% 29.92 in 10.0 mi WSW 11.5 mph - N/A   Clear
3:15 PM 41.0 °F 37.1 °F 28.4 °F 61% 29.92 in 10.0 mi WSW 5.8 mph - N/A   Clear
3:35 PM 39.2 °F 34.2 °F 30.2 °F 70% 29.93 in 10.0 mi SW 6.9 mph - N/A   Clear
3:54 PM 39.2 °F 34.2 °F 30.2 °F 70% 29.95 in 10.0 mi SSW 6.9 mph - N/A   Clear
4:15 PM 39.2 °F 33.6 °F 28.4 °F 65% 29.96 in 10.0 mi SW 8.1 mph - N/A   Clear
4:35 PM 41.0 °F 36.4 °F 26.6 °F 57% 29.96 in 10.0 mi WSW 6.9 mph - N/A   Clear
4:54 PM 41.0 °F 37.1 °F 26.6 °F 57% 29.97 in 10.0 mi WSW 5.8 mph - N/A   Clear
5:15 PM 37.4 °F 31.4 °F 28.4 °F 70% 29.98 in 10.0 mi SSW 8.1 mph - N/A   Clear
5:35 PM 37.4 °F 29.8 °F 28.4 °F 70% 30.00 in 10.0 mi SW 11.5 mph - N/A   Clear
5:54 PM 37.4 °F 30.8 °F 28.4 °F 70% 30.01 in 10.0 mi SW 9.2 mph - N/A   Clear
6:15 PM 35.6 °F 29.2 °F 28.4 °F 75% 30.02 in 10.0 mi SSW 8.1 mph - N/A   Clear
6:35 PM 35.6 °F 28.6 °F 28.4 °F 75% 30.02 in 10.0 mi SSW 9.2 mph - N/A   Clear
6:54 PM 33.8 °F 27.7 °F 28.4 °F 81% 30.02 in 10.0 mi SSW 6.9 mph - N/A   Clear
7:15 PM 33.8 °F 28.6 °F 28.4 °F 81% 30.02 in 10.0 mi South 5.8 mph - N/A   Clear
7:35 PM 33.8 °F 28.6 °F 28.4 °F 81% 30.02 in 10.0 mi South 5.8 mph - N/A   Clear
7:55 PM 33.8 °F 28.6 °F 28.4 °F 81% 30.01 in 10.0 mi South 5.8 mph - N/A   Clear
8:15 PM 32.0 °F 26.4 °F 28.4 °F 87% 30.01 in 10.0 mi South 5.8 mph - N/A   Clear
8:35 PM 32.0 °F 26.4 °F 28.4 °F 87% 30.00 in 10.0 mi South 5.8 mph - N/A   Clear
8:55 PM 30.2 °F 25.4 °F 28.4 °F 93% 30.00 in 10.0 mi South 4.6 mph - N/A   Clear
9:15 PM 30.2 °F 25.4 °F 28.4 °F 93% 29.99 in 10.0 mi SSE 4.6 mph - N/A   Clear
9:34 PM 30.2 °F 26.7 °F 26.6 °F 86% 30.00 in 10.0 mi South 3.5 mph - N/A   Clear
9:55 PM 30.2 °F 26.7 °F 26.6 °F 86% 30.00 in 10.0 mi SSE 3.5 mph - N/A   Clear
10:14 PM 30.2 °F 26.7 °F 26.6 °F 86% 30.00 in 10.0 mi SSE 3.5 mph - N/A   Clear
10:35 PM 30.2 °F - 26.6 °F 86% 30.00 in 10.0 mi Calm Calm - N/A   Clear
10:55 PM 30.2 °F - 26.6 °F 86% 30.01 in 7.0 mi Calm Calm - N/A   Clear
11:14 PM 30.2 °F - 26.6 °F 86% 30.01 in 10.0 mi Calm Calm - N/A   Clear
11:35 PM 30.2 °F - 26.6 °F 86% 30.01 in 10.0 mi Calm Calm - N/A   Clear
11:55 PM 30.2 °F - 28.4 °F 93% 30.01 in 10.0 mi Calm Calm - N/A   Clear